Flag for Germany

Past Weather in Eisenhüttenstadt, Brandenburg, Germany — Yesterday and Last 2 Weeks

Currently: 43 °F. Passing clouds. (Weather station: Zielona Gora Airport, Germany). See more current weather

Past Weather in Eisenhüttenstadt — Graph

°F

Eisenhüttenstadt Temperature Yesterday

Maximum temperature yesterday: 48 °F (at 1:30 pm)
Minimum temperature yesterday: 37 °F (at 8:30 am)
Average temperature yesterday: 42 °F

High & Low Weather Summary for the Past Weeks

 TemperatureHumidityPressure
High48 °F (Jan 20, 1:30 pm)100% (Jan 6, 9:00 am)30.24 "Hg (Jan 6, 9:00 am)
Low7 °F (Jan 18, 6:30 am)58% (Jan 17, 12:30 pm)29.53 "Hg (Jan 12, 3:30 pm)
Average31 °F89%29.94 "Hg
* Reported Jan 6 9:00 am — Jan 21 9:00 am, Eisenhüttenstadt. Weather by CustomWeather, © 2021

Note: Actual official high and low records may vary slightly from our data, if they occured in-between our weather recording intervals... More about our weather records

Eisenhüttenstadt Weather History for the Previous 24 Hours

Scroll right to see more
 ConditionsComfort  
Time TempWeatherWind HumidityBarometerVisibility
9:00 am
Thu, Jan 21
41 °FSunny.12 mph70%29.56 "Hg10 mi
8:30 am41 °FSunny.8 mph70%29.56 "Hg10 mi
8:00 am41 °FPassing clouds.6 mph70%29.56 "HgN/A
7:30 am39 °FPassing clouds.5 mph70%29.56 "HgN/A
7:00 am41 °FPassing clouds.6 mph66%29.56 "HgN/A
6:30 am41 °FPassing clouds.8 mph66%29.56 "HgN/A
6:00 am41 °FPassing clouds.7 mph66%29.56 "HgN/A
5:30 am41 °FPassing clouds.7 mph66%29.56 "HgN/A
5:00 am41 °FPassing clouds.5 mph66%29.59 "HgN/A
10:00 pm
Wed, Jan 20
39 °FClear.7 mph75%29.65 "Hg10 mi
9:30 pm39 °FClear.8 mph75%29.65 "Hg10 mi
9:00 pm41 °FClear.10 mph70%29.65 "Hg10 mi
8:30 pm41 °FClear.12 mph70%29.65 "Hg10 mi
8:00 pm41 °FClear.12 mph70%29.65 "Hg10 mi
7:30 pm43 °FClear.12 mph71%29.65 "Hg10 mi
7:00 pm43 °FPassing clouds.12 mph71%29.65 "HgN/A
6:30 pm43 °FPassing clouds.10 mph71%29.65 "HgN/A
6:00 pm43 °FPassing clouds.9 mph71%29.65 "HgN/A
5:30 pm41 °FClear.9 mph76%29.65 "Hg10 mi
5:00 pm43 °FClear.10 mph71%29.65 "Hg10 mi
4:30 pm43 °FClear.10 mph71%29.65 "Hg10 mi
4:00 pm45 °FSunny.9 mph71%29.65 "Hg10 mi
3:30 pm46 °FSunny.12 mph66%29.65 "Hg10 mi
3:00 pm48 °FPassing clouds.12 mph62%29.65 "HgN/A
2:30 pm48 °FSunny.12 mph62%29.65 "Hg10 mi
2:00 pm48 °FSunny.10 mph62%29.65 "Hg10 mi
1:30 pm48 °FSunny.12 mph62%29.65 "Hg10 mi
1:00 pm46 °FSunny.10 mph66%29.68 "Hg10 mi
12:30 pm46 °FSunny.12 mph66%29.68 "Hg10 mi
12:00 pm45 °FSunny.14 mph71%29.68 "Hg10 mi
11:30 am45 °FSunny.14 mph71%29.68 "Hg10 mi
11:00 am45 °FSunny.13 mph71%29.68 "Hg10 mi
10:30 am43 °FPassing clouds.6 mph81%29.68 "HgN/A
10:00 am41 °FPassing clouds.6 mph87%29.68 "HgN/A
Weather by CustomWeather, © 2021

See weather overview